| time (UTC) | temp F | wind direction | speed MPH | gust MPH | rain 1hr in | rain 24hr in | rain mn in | humidity % | barometer mb |
| 20260505035530 | 57 | 80 | 3.0 | 6.0 | 0.00 | 0.00 | 0.00 | 75 | 1009.5 |
| 20260505035049 | 58 | 44 | 2.0 | 6.0 | 0.00 | 0.00 | 0.00 | 75 | 1009.5 |
| 20260505034506 | 58 | 61 | 1.0 | 6.0 | 0.00 | 0.00 | 0.00 | 75 | 1009.6 |
| 20260505034034 | 58 | 61 | 3.0 | 6.0 | 0.00 | 0.00 | 0.00 | 75 | 1009.7 |
| 20260505033553 | 58 | 71 | 3.0 | 6.0 | 0.00 | 0.00 | 0.00 | 75 | 1009.7 |
| 20260505033023 | 58 | 72 | 2.0 | 5.0 | 0.00 | 0.00 | 0.00 | 74 | 1009.8 |
| 20260505032536 | 58 | 57 | 2.0 | 5.0 | 0.00 | 0.00 | 0.00 | 74 | 1009.8 |
| 20260505032054 | 58 | 77 | 2.0 | 4.0 | 0.00 | 0.00 | 0.00 | 74 | 1009.8 |
| 20260505031523 | 58 | 74 | 2.0 | 4.0 | 0.00 | 0.00 | 0.00 | 74 | 1009.9 |
| 20260505031039 | 58 | 85 | 2.0 | 8.0 | 0.00 | 0.00 | 0.00 | 74 | 1009.9 |
| 20260505030559 | 59 | 78 | 3.0 | 8.0 | 0.00 | 0.00 | 0.00 | 74 | 1009.9 |
| 20260505030025 | 59 | 66 | 5.0 | 8.0 | 0.00 | 0.00 | 0.00 | 73 | 1010.0 |
| 20260505025543 | 58 | 93 | 3.0 | 6.0 | 0.00 | 0.00 | 0.00 | 74 | 1010.0 |
| 20260505025008 | 58 | 80 | 3.0 | 6.0 | 0.00 | 0.00 | 0.00 | 74 | 1010.1 |
| 20260505024528 | 58 | 82 | 2.0 | 5.0 | 0.00 | 0.00 | 0.00 | 74 | 1010.2 |
| 20260505024046 | 58 | 58 | 3.0 | 5.0 | 0.00 | 0.00 | 0.00 | 74 | 1010.2 |
| 20260505023502 | 58 | 78 | 2.0 | 3.0 | 0.00 | 0.00 | 0.00 | 74 | 1010.2 |
| 20260505023028 | 58 | 78 | 1.0 | 3.0 | 0.00 | 0.00 | 0.00 | 74 | 1010.3 |
| 20260505022546 | 58 | 88 | 0.0 | 3.0 | 0.00 | 0.00 | 0.00 | 74 | 1010.3 |
| 20260505022104 | 58 | 88 | 1.0 | 4.0 | 0.00 | 0.00 | 0.00 | 74 | 1010.4 |
| 20260505021528 | 58 | 73 | 1.0 | 4.0 | 0.00 | 0.00 | 0.00 | 74 | 1010.3 |
| 20260505021044 | 58 | 73 | 0.0 | 3.0 | 0.00 | 0.00 | 0.00 | 74 | 1010.3 |
| 20260505020511 | 58 | 73 | 0.0 | 3.0 | 0.00 | 0.00 | 0.00 | 74 | 1010.4 |
| 20260505020048 | 58 | 65 | 0.0 | 3.0 | 0.00 | 0.00 | 0.00 | 75 | 1010.3 |
| 20260505015554 | 58 | 65 | 0.0 | 2.0 | 0.00 | 0.00 | 0.00 | 75 | 1010.3 |
| 20260505015016 | 58 | 76 | 0.0 | 3.0 | 0.00 | 0.00 | 0.00 | 75 | 1010.4 |
| 20260505014535 | 57 | 76 | 0.0 | 3.0 | 0.00 | 0.00 | 0.00 | 75 | 1010.4 |
| 20260505014041 | 57 | 76 | 1.0 | 3.0 | 0.00 | 0.00 | 0.00 | 75 | 1010.5 |
| 20260505013507 | 57 | 75 | 0.0 | 2.0 | 0.00 | 0.00 | 0.00 | 75 | 1010.5 |
| 20260505013025 | 57 | 63 | 0.0 | 0.0 | 0.00 | 0.00 | 0.00 | 75 | 1010.6 |
| 20260505012544 | 57 | 53 | 0.0 | 2.0 | 0.00 | 0.00 | 0.00 | 75 | 1010.6 |
| 20260505012059 | 57 | 53 | 0.0 | 4.0 | 0.00 | 0.00 | 0.00 | 75 | 1010.7 |
| 20260505011514 | 57 | 38 | 0.0 | 4.0 | 0.00 | 0.00 | 0.00 | 75 | 1010.7 |
| 20260505011038 | 56 | 41 | 0.0 | 3.0 | 0.00 | 0.00 | 0.00 | 75 | 1010.8 |
| 20260505010559 | 56 | 107 | 0.0 | 0.0 | 0.00 | 0.00 | 0.00 | 75 | 1010.8 |
| 20260505010013 | 56 | 188 | 0.0 | 0.0 | 0.00 | 0.00 | 0.00 | 75 | 1010.8 |
| 20260505005533 | 56 | 188 | 0.0 | 0.0 | 0.00 | 0.00 | 0.00 | 76 | 1010.9 |
| 20260505005048 | 56 | 188 | 0.0 | 0.0 | 0.00 | 0.00 | 0.00 | 76 | 1010.9 |
| 20260505004505 | 56 | 287 | 0.0 | 0.0 | 0.00 | 0.00 | 0.00 | 76 | 1011.0 |
| 20260505004018 | 56 | 287 | 0.0 | 0.0 | 0.00 | 0.00 | 0.00 | 76 | 1010.9 |
| 20260505003538 | 56 | 287 | 0.0 | 0.0 | 0.00 | 0.00 | 0.00 | 75 | 1011.0 |
| 20260505003048 | 56 | 287 | 0.0 | 0.0 | 0.00 | 0.00 | 0.00 | 75 | 1011.0 |
| 20260505002602 | 56 | 287 | 0.0 | 0.0 | 0.00 | 0.00 | 0.00 | 75 | 1011.0 |
| 20260505002015 | 56 | 287 | 0.0 | 0.0 | 0.00 | 0.00 | 0.00 | 75 | 1011.0 |
| 20260505001538 | 56 | 287 | 0.0 | 0.0 | 0.00 | 0.00 | 0.00 | 75 | 1011.2 |
| 20260505001054 | 56 | 287 | 0.0 | 0.0 | 0.00 | 0.00 | 0.00 | 74 | 1011.2 |
| 20260505000507 | 56 | 287 | 0.0 | 0.0 | 0.00 | 0.00 | 0.00 | 74 | 1011.3 |
| 20260505000044 | 56 | 287 | 0.0 | 0.0 | 0.00 | 0.00 | 0.00 | 74 | 1011.4 |
| 20260504235556 | 56 | 287 | 0.0 | 0.0 | 0.00 | 0.00 | 0.00 | 74 | 1011.5 |
| 20260504235008 | 56 | 287 | 0.0 | 0.0 | 0.00 | 0.00 | 0.00 | 74 | 1011.6 |
| 20260504234528 | 56 | 287 | 0.0 | 0.0 | 0.00 | 0.00 | 0.00 | 74 | 1011.6 |
| 20260504234039 | 56 | 287 | 0.0 | 0.0 | 0.00 | 0.00 | 0.00 | 74 | 1011.5 |
| 20260504233506 | 57 | 287 | 0.0 | 0.0 | 0.00 | 0.00 | 0.00 | 73 | 1011.5 |
| 20260504233026 | 57 | 287 | 0.0 | 0.0 | 0.00 | 0.00 | 0.00 | 73 | 1011.5 |
| 20260504232545 | 57 | 287 | 0.0 | 0.0 | 0.00 | 0.00 | 0.00 | 73 | 1011.5 |
| 20260504232001 | 57 | 287 | 0.0 | 0.0 | 0.00 | 0.00 | 0.00 | 72 | 1011.6 |
| 20260504231532 | 57 | 287 | 0.0 | 0.0 | 0.00 | 0.00 | 0.00 | 72 | 1011.7 |
| 20260504231047 | 57 | 287 | 0.0 | 0.0 | 0.00 | 0.00 | 0.00 | 72 | 1011.7 |
| 20260504230507 | 58 | 287 | 0.0 | 0.0 | 0.00 | 0.00 | 0.00 | 72 | 1011.7 |
| 20260504230025 | 58 | 287 | 0.0 | 0.0 | 0.00 | 0.00 | 0.00 | 71 | 1011.8 |
| 20260504225548 | 58 | 287 | 0.0 | 0.0 | 0.00 | 0.00 | 0.00 | 71 | 1011.7 |
| 20260504225011 | 58 | 287 | 0.0 | 0.0 | 0.00 | 0.00 | 0.00 | 71 | 1011.7 |
| 20260504224534 | 58 | 287 | 0.0 | 0.0 | 0.00 | 0.00 | 0.00 | 71 | 1011.6 |
| 20260504224047 | 58 | 287 | 0.0 | 0.0 | 0.00 | 0.00 | 0.00 | 70 | 1011.7 |
| 20260504223508 | 58 | 287 | 0.0 | 0.0 | 0.00 | 0.00 | 0.00 | 70 | 1011.7 |
| 20260504223034 | 58 | 287 | 0.0 | 0.0 | 0.00 | 0.00 | 0.00 | 70 | 1011.8 |
| 20260504222553 | 59 | 287 | 0.0 | 0.0 | 0.00 | 0.00 | 0.00 | 69 | 1011.8 |
| 20260504222008 | 59 | 287 | 0.0 | 0.0 | 0.00 | 0.00 | 0.00 | 69 | 1011.7 |
| 20260504221539 | 59 | 287 | 0.0 | 0.0 | 0.00 | 0.00 | 0.00 | 69 | 1011.8 |
| 20260504221058 | 59 | 287 | 0.0 | 0.0 | 0.00 | 0.00 | 0.00 | 69 | 1011.8 |
| 20260504220514 | 59 | 287 | 0.0 | 0.0 | 0.00 | 0.00 | 0.00 | 69 | 1011.9 |
| 20260504220035 | 59 | 287 | 0.0 | 0.0 | 0.00 | 0.00 | 0.00 | 68 | 1011.9 |
| 20260504215554 | 59 | 287 | 0.0 | 0.0 | 0.00 | 0.00 | 0.00 | 68 | 1011.9 |
| 20260504215008 | 59 | 287 | 0.0 | 0.0 | 0.00 | 0.00 | 0.00 | 68 | 1011.9 |
| 20260504214519 | 59 | 287 | 0.0 | 0.0 | 0.00 | 0.00 | 0.00 | 67 | 1011.9 |
| 20260504214032 | 59 | 287 | 0.0 | 0.0 | 0.00 | 0.00 | 0.00 | 67 | 1012.0 |
| 20260504213551 | 59 | 287 | 0.0 | 0.0 | 0.00 | 0.00 | 0.00 | 66 | 1011.9 |
| 20260504213008 | 59 | 287 | 0.0 | 0.0 | 0.00 | 0.00 | 0.00 | 66 | 1012.0 |
| 20260504212528 | 59 | 287 | 0.0 | 0.0 | 0.00 | 0.00 | 0.00 | 66 | 1012.0 |
| 20260504212046 | 59 | 287 | 0.0 | 0.0 | 0.00 | 0.00 | 0.00 | 66 | 1012.0 |
| 20260504211510 | 60 | 287 | 0.0 | 0.0 | 0.00 | 0.00 | 0.00 | 65 | 1011.9 |
| 20260504211030 | 60 | 287 | 0.0 | 0.0 | 0.00 | 0.00 | 0.00 | 65 | 1012.0 |
| 20260504210559 | 60 | 287 | 0.0 | 0.0 | 0.00 | 0.00 | 0.00 | 65 | 1012.0 |
| 20260504210016 | 60 | 287 | 0.0 | 0.0 | 0.00 | 0.00 | 0.00 | 64 | 1012.0 |
| 20260504205542 | 60 | 287 | 0.0 | 0.0 | 0.00 | 0.00 | 0.00 | 64 | 1012.0 |
| 20260504205059 | 60 | 287 | 0.0 | 1.0 | 0.00 | 0.00 | 0.00 | 63 | 1012.0 |
| 20260504204527 | 60 | 287 | 0.0 | 1.0 | 0.00 | 0.00 | 0.00 | 63 | 1012.0 |
| 20260504204046 | 61 | 287 | 0.0 | 0.0 | 0.00 | 0.00 | 0.00 | 63 | 1012.0 |
| 20260504203513 | 61 | 287 | 0.0 | 0.0 | 0.00 | 0.00 | 0.00 | 62 | 1012.0 |
| 20260504203034 | 61 | 287 | 0.0 | 0.0 | 0.00 | 0.00 | 0.00 | 61 | 1011.9 |
| 20260504202553 | 62 | 287 | 0.0 | 0.0 | 0.00 | 0.00 | 0.00 | 61 | 1011.9 |
| 20260504202010 | 62 | 287 | 0.0 | 0.0 | 0.00 | 0.00 | 0.00 | 60 | 1011.9 |
| 20260504201546 | 62 | 287 | 0.0 | 0.0 | 0.00 | 0.00 | 0.00 | 60 | 1012.0 |
| 20260504201059 | 63 | 287 | 0.0 | 0.0 | 0.00 | 0.00 | 0.00 | 60 | 1012.0 |
| 20260504200527 | 63 | 287 | 0.0 | 0.0 | 0.00 | 0.00 | 0.00 | 58 | 1011.9 |
| 20260504200055 | 63 | 287 | 0.0 | 0.0 | 0.00 | 0.00 | 0.00 | 58 | 1011.9 |
| 20260504195510 | 64 | 287 | 0.0 | 0.0 | 0.00 | 0.00 | 0.00 | 57 | 1011.9 |
| 20260504195027 | 64 | 287 | 0.0 | 0.0 | 0.00 | 0.00 | 0.00 | 57 | 1011.9 |
| 20260504194547 | 65 | 287 | 0.0 | 0.0 | 0.00 | 0.00 | 0.00 | 56 | 1011.9 |
| 20260504194055 | 65 | 287 | 0.0 | 0.0 | 0.00 | 0.00 | 0.00 | 55 | 1011.9 |
| 20260504193519 | 65 | 287 | 0.0 | 0.0 | 0.00 | 0.00 | 0.00 | 54 | 1011.9 |
| 20260504193043 | 65 | 287 | 0.0 | 0.0 | 0.00 | 0.00 | 0.00 | 52 | 1012.0 |
| 20260504192559 | 66 | 287 | 0.0 | 1.0 | 0.00 | 0.00 | 0.00 | 52 | 1011.9 |
| 20260504192025 | 66 | 287 | 0.0 | 3.0 | 0.00 | 0.00 | 0.00 | 51 | 1011.9 |
| 20260504191554 | 66 | 269 | 0.0 | 3.0 | 0.00 | 0.00 | 0.00 | 51 | 1011.9 |
| 20260504191101 | 67 | 269 | 1.0 | 3.0 | 0.00 | 0.00 | 0.00 | 51 | 1011.8 |
| 20260504190517 | 67 | 270 | 1.0 | 3.0 | 0.00 | 0.00 | 0.00 | 49 | 1011.8 |
| 20260504190032 | 67 | 265 | 1.0 | 3.0 | 0.00 | 0.00 | 0.00 | 49 | 1011.8 |
| 20260504185551 | 67 | 257 | 0.0 | 3.0 | 0.00 | 0.00 | 0.00 | 48 | 1011.8 |
| 20260504185009 | 68 | 327 | 0.0 | 3.0 | 0.00 | 0.00 | 0.00 | 48 | 1011.7 |
| 20260504184534 | 68 | 328 | 0.0 | 2.0 | 0.00 | 0.00 | 0.00 | 48 | 1011.8 |
| 20260504184044 | 68 | 275 | 0.0 | 3.0 | 0.00 | 0.00 | 0.00 | 47 | 1011.6 |
| 20260504183601 | 69 | 271 | 1.0 | 4.0 | 0.00 | 0.00 | 0.00 | 47 | 1011.5 |
| 20260504183032 | 69 | 263 | 1.0 | 3.0 | 0.00 | 0.00 | 0.00 | 46 | 1011.5 |
| 20260504182543 | 69 | 304 | 0.0 | 3.0 | 0.00 | 0.00 | 0.00 | 45 | 1011.5 |
| 20260504182010 | 69 | 350 | 0.0 | 3.0 | 0.00 | 0.00 | 0.00 | 45 | 1011.5 |
| 20260504181531 | 70 | 259 | 0.0 | 3.0 | 0.00 | 0.00 | 0.00 | 45 | 1011.5 |
| 20260504181048 | 70 | 321 | 1.0 | 4.0 | 0.00 | 0.00 | 0.00 | 45 | 1011.5 |
| 20260504180504 | 70 | 307 | 1.0 | 7.0 | 0.00 | 0.00 | 0.00 | 45 | 1011.4 |
| 20260504180033 | 70 | 303 | 2.0 | 7.0 | 0.00 | 0.00 | 0.00 | 45 | 1011.4 |
| 20260504175551 | 71 | 338 | 0.0 | 3.0 | 0.00 | 0.00 | 0.00 | 45 | 1011.3 |
| 20260504175008 | 71 | 13 | 0.0 | 3.0 | 0.00 | 0.00 | 0.00 | 45 | 1011.3 |
| 20260504174528 | 71 | 312 | 0.0 | 4.0 | 0.00 | 0.00 | 0.00 | 44 | 1011.3 |
| 20260504174046 | 71 | 5 | 0.0 | 4.0 | 0.00 | 0.00 | 0.00 | 44 | 1011.3 |
| 20260504173505 | 71 | 317 | 0.0 | 4.0 | 0.00 | 0.00 | 0.00 | 44 | 1011.3 |
| 20260504173018 | 71 | 329 | 0.0 | 3.0 | 0.00 | 0.00 | 0.00 | 44 | 1011.3 |
| 20260504172536 | 71 | 335 | 0.0 | 3.0 | 0.00 | 0.00 | 0.00 | 44 | 1011.3 |
| 20260504172056 | 72 | 315 | 0.0 | 5.0 | 0.00 | 0.00 | 0.00 | 44 | 1011.3 |
| 20260504171522 | 72 | 296 | 0.0 | 6.0 | 0.00 | 0.00 | 0.00 | 44 | 1011.4 |
| 20260504171041 | 72 | 323 | 2.0 | 6.0 | 0.00 | 0.00 | 0.00 | 44 | 1011.3 |
| 20260504170507 | 72 | 296 | 1.0 | 6.0 | 0.00 | 0.00 | 0.00 | 44 | 1011.4 |
| 20260504151054 | 76 | 245 | 2.0 | 9.0 | 0.00 | 0.00 | 0.00 | 36 | 1011.5 |
| 20260504150520 | 76 | 261 | 0.0 | 11.0 | 0.00 | 0.00 | 0.00 | 35 | 1011.5 |
| 20260504141045 | 77 | 306 | 4.0 | 9.0 | 0.00 | 0.00 | 0.00 | 36 | 1011.5 |
| 20260504140502 | 77 | 56 | 0.0 | 10.0 | 0.00 | 0.00 | 0.00 | 35 | 1011.6 |
| 20260504130603 | 76 | 330 | 1.0 | 7.0 | 0.00 | 0.00 | 0.00 | 37 | 1012.0 |
| 20260504110507 | 75 | 259 | 8.0 | 12.0 | 0.00 | 0.00 | 0.00 | 38 | 1012.8 |
| 20260504100513 | 74 | 280 | 5.0 | 10.0 | 0.00 | 0.00 | 0.00 | 41 | 1013.4 |
| 20260504082004 | 69 | 294 | 5.0 | 10.0 | 0.00 | 0.00 | 0.00 | 47 | 1013.6 |
| 20260504081527 | 69 | 235 | 2.0 | 9.0 | 0.00 | 0.00 | 0.00 | 47 | 1013.6 |
| 20260504081042 | 69 | 209 | 5.0 | 10.0 | 0.00 | 0.00 | 0.00 | 47 | 1013.6 |
| 20260504080502 | 68 | 186 | 3.0 | 6.0 | 0.00 | 0.00 | 0.00 | 49 | 1013.6 |
| 20260504050531 | 61 | 189 | 1.0 | 3.0 | 0.00 | 0.00 | 0.00 | 56 | 1012.3 |
| 20260504045514 | 61 | 169 | 1.0 | 3.0 | 0.00 | 0.00 | 0.00 | 56 | 1012.5 |
| 20260504045032 | 61 | 176 | 0.0 | 3.0 | 0.00 | 0.00 | 0.00 | 55 | 1012.3 |
| 20260504044550 | 60 | 237 | 1.0 | 4.0 | 0.00 | 0.00 | 0.00 | 56 | 1012.4 |
| 20260504044006 | 60 | 10 | 1.0 | 4.0 | 0.00 | 0.00 | 0.00 | 56 | 1012.0 |
| 20260504043524 | 60 | 300 | 1.0 | 4.0 | 0.00 | 0.00 | 0.00 | 55 | 1012.5 |
| 20260504043108 | 60 | 225 | 0.0 | 5.0 | 0.00 | 0.00 | 0.00 | 55 | 1012.7 |
| 20260504042502 | 60 | 240 | 1.0 | 5.0 | 0.00 | 0.00 | 0.00 | 55 | 1012.6 |
| 20260504042019 | 60 | 232 | 2.0 | 5.0 | 0.00 | 0.00 | 0.00 | 54 | 1012.5 |
| 20260504041537 | 60 | 252 | 2.0 | 7.0 | 0.00 | 0.00 | 0.00 | 54 | 1012.5 |
| 20260504041048 | 60 | 209 | 1.0 | 8.0 | 0.00 | 0.00 | 0.00 | 54 | 1012.5 |
| 20260504040503 | 60 | 240 | 4.0 | 6.0 | 0.00 | 0.00 | 0.00 | 53 | 1012.5 |
| 20260504040023 | 60 | 261 | 4.0 | 9.0 | 0.00 | 0.00 | 0.00 | 53 | 1012.2 |